Weather History for Port Hope, MI

Change the Weather History Date:

Sunday, February 17, 2013

  Actual Average Record
Temperature  
Mean Temperature 14 °F -  
Max Temperature 19 °F 30 °F 50 °F (2011)
Min Temperature 10 °F 19 °F -9 °F (2014)
Degree Days  
Heating Degree Days 50    
Moisture  
Dew Point 7 °F    
Average Humidity 65    
Maximum Humidity 78    
Minimum Humidity 50    
Precipitation  
Precipitation 0.02 in - - ()
Sea Level Pressure  
Sea Level Pressure 30.16 in    
Wind  
Wind Speed 6 mph (NW)    
Max Wind Speed 16 mph    
Max Gust Speed 23 mph    
Averages and records for this station are not official NWS values.
T = Trace of Precipitation, MM = Missing Value Source: NWS Daily Summary

Daily Weather History Graph

Daily Weather History Graph

Search for Another Location

Airport:

Trip Planner

Search our weather history database for the weather conditions in past years. The results will help you decide how hot, cold, wet, or windy it might be!

Date:

Astronomy

Feb. 17, 2013 Rise Set
Actual Time 7:27 AM EST 6:03 PM EST
Civil Twilight 6:57 AM EST 6:33 PM EST
Nautical Twilight 6:23 AM EST 7:07 PM EST
Astronomical Twilight 5:50 AM EST 7:40 PM EST
Moon 11:02 AM EST (2/17) 1:14 AM EST (2/17)
Length of Visible Light 11h 35m
Length of Day
10h 36m
Waxing Crescent, 49% of the Moon is Illuminated
Feb 17
Waxing Crescent
Feb 17
First Quarter
Feb 25
Full
Mar 4
Last Quarter
Mar 11
New

Hourly Weather History & Observations

Time (EST) Temp. Windchill Dew Point Humidity Pressure Visibility Wind Dir Wind Speed Gust Speed Precip Events Conditions
12:51 AM 19.0 °F 11.1 °F 8.1 °F 62% 30.08 in - NNW 5.8 mph - N/A   Unknown
1:51 AM 19.0 °F 10.0 °F 9.0 °F 65% 30.07 in - NNW 6.9 mph - N/A   Unknown
2:51 AM 18.0 °F 7.7 °F 12.0 °F 78% 30.07 in - NW 8.1 mph 17.3 mph N/A   Unknown
3:51 AM 18.0 °F 6.9 °F 10.0 °F 71% 30.08 in - NW 9.2 mph 18.4 mph N/A   Unknown
4:51 AM 18.0 °F 11.1 °F 8.1 °F 65% 30.09 in - NNW 4.6 mph - N/A   Unknown
5:51 AM 17.1 °F 5.0 °F 10.9 °F 77% 30.10 in - WNW 10.4 mph 17.3 mph N/A   Unknown
6:51 AM 18.0 °F 9.8 °F 10.0 °F 71% 30.11 in - Variable 5.8 mph - 0.02 in   Unknown
7:51 AM 18.0 °F 6.1 °F 9.0 °F 68% 30.13 in - North 10.4 mph 19.6 mph N/A   Unknown
8:51 AM 18.0 °F 3.1 °F 9.0 °F 68% 30.14 in - North 16.1 mph 23.0 mph N/A   Unknown
9:51 AM 18.0 °F 9.8 °F 10.0 °F 71% 30.16 in - NNW 5.8 mph - N/A   Unknown
10:51 AM 19.0 °F 10.0 °F 8.1 °F 62% 30.18 in - NNW 6.9 mph - N/A   Unknown
11:51 AM 19.0 °F 12.3 °F 9.0 °F 65% 30.19 in - NNW 4.6 mph - N/A   Unknown
12:51 PM 19.0 °F 11.1 °F 8.1 °F 62% 30.18 in - NNW 5.8 mph - N/A   Unknown
1:51 PM 19.0 °F 8.2 °F 7.0 °F 59% 30.19 in - NW 9.2 mph - N/A   Unknown
2:51 PM 18.0 °F 9.8 °F 5.0 °F 57% 30.19 in - NW 5.8 mph - N/A   Unknown
3:51 PM 19.9 °F 14.9 °F 3.9 °F 50% 30.19 in - NW 3.5 mph - N/A   Unknown
4:51 PM 19.0 °F 13.9 °F 5.0 °F 54% 30.20 in - NW 3.5 mph - N/A   Unknown
5:51 PM 17.1 °F - 3.9 °F 56% 30.20 in - Calm Calm - N/A   Unknown
6:51 PM 12.0 °F - 3.0 °F 67% 30.21 in - Calm Calm - N/A   Unknown
7:51 PM 12.0 °F 5.9 °F 3.9 °F 70% 30.22 in - South 3.5 mph - N/A   Unknown
8:51 PM 10.9 °F 4.7 °F 3.0 °F 70% 30.22 in - SSW 3.5 mph - N/A   Unknown
9:51 PM 12.9 °F 5.2 °F 3.0 °F 65% 30.22 in - SW 4.6 mph - N/A   Unknown
10:51 PM 10.0 °F 1.8 °F 1.9 °F 70% 30.22 in - SSW 4.6 mph - N/A   Unknown
11:51 PM 10.0 °F 1.8 °F 1.0 °F 67% 30.22 in - SSW 4.6 mph - N/A   Unknown